Reflectivity
-20 -20 -20 -20 -20 -20 -20 -20 -20 -20 -20 -20 -20 -20 -20 -20 -20 -20 -20 -20 -20 -20 -20 -20 -20 -20 12 13 -4 4 -14 -6 9 -13 -20 -20 -20 -20 -20 -20 -20 -18 -2
-20 -20 -20 -20 -20 -20 -20 -20 -20 -20 -20 -20 -20 -20 -20 -20 -20 -20 -20 -20 -20 -20 -20 -20 -20 -20 -20 -20 -20 -20 -20 -9 6 1 -5 -19 -20 -20 -20 -20 -20 -20 7
-20 -20 -20 -20 -20 -20 -20 -20 -20 -20 -20 -20 -20 -20 -20 -20 -20 -20 -20 -20 -20 -20 -20 -20 -20 -20 -20 -20 -20 -20 -20 -20 -20 -20 -20 13 4 10 -16 -20 -20 -20 -20
-20 -20 -20 -20 -20 -20 -20 -20 -20 -20 -20 -20 -20 -20 -20 -20 -20 -20 -20 -20 -20 -20 -20 -20 -20 -20 -20 -20 -20 -20 -20 -20 -20 3 -2 -19 7 9 8 12 17 20 17
-20 -20 -20 -20 -20 -20 -20 -20 -20 -20 -20 -20 -20 -20 -20 -20 -20 -20 -20 -20 -20 -20 -20 -20 -20 -20 -20 -20 -20 -20 -20 -20 -20 -20 -20 -9 -11 -20 -20 -20 -20 8 -3
-20 -20 -20 -20 -20 -20 -20 -20 -20 -20 -20 -20 -20 -20 -20 -20 -20 -20 -20 -20 -20 -20 -20 -20 -20 -20 -20 -20 -20 -20 -20 -20 -20 -20 -20 -20 -20 -20 -3 -20 -20 -20 -20
-20 -20 -20 -20 -20 -20 -12 -12 -20 -20 -20 -20 -20 -20 -20 -20 -20 -20 -20 -20 -20 -20 -20 -20 -20 -20 -20 -20 -20 -20 -20 -20 -20 -20 -20 -20 -20 -20 -20 -20 -9 -20 -20
-20 -20 -20 -20 -20 7 -6 -2 -16 8 13 -4 2 -20 -20 -20 -20 -20 -20 -20 -20 -20 -20 -20 -20 -20 -20 -20 -20 -20 -20 -20 -20 -20 -20 -20 -20 -20 -20 -20 -20 -1 14
-20 -20 -20 -20 -20 7 -2 12 -4 -20 -16 -5 -2 -1 -20 -20 -20 -20 -20 -20 -20 -20 -20 -20 -20 -20 -20 -20 -20 -20 -20 -20 -20 -20 -20 -20 -20 -20 -20 -20 -15 -14 -20
-20 -20 -20 -20 -20 2 -2 -16 -13 -17 10 -20 -5 -20 -20 -20 -20 -20 -18 -20 -20 -20 -20 -20 -20 -20 -20 -20 -20 -20 -20 -20 -20 -20 -20 -20 -20 -20 -20 -20 -2 13 13
-20 -20 1 -8 -20 -20 -20 -12 -10 -13 -20 -10 -8 -20 -20 -20 -20 -20 -20 -20 -20 -15 -20 -20 -20 -20 -20 -20 -20 -20 -20 -20 -20 -20 -20 -20 -20 -20 -20 1 -7 12 14
-20 -20 -20 -18 -15 -20 -20 -2 -15 -20 -20 -20 -20 -20 -20 -20 -20 -20 -20 -20 -20 -20 -20 -20 -20 -20 -20 -20 -20 -20 -20 -20 -20 -20 -20 -20 -20 -20 -20 -20 -20 -0 6
-20 -20 -20 -20 -20 -20 -20 -1 -20 -20 -20 -20 -20 -2 -20 -20 -20 -20 -20 -20 -20 -20 -20 -20 -19 -20 -20 -20 -20 -20 -20 -20 -20 -20 -20 -20 -20 -20 -20 -20 -20 -19 9
-20 -20 -20 -20 -20 -20 -20 -20 -1 5 12 -20 -20 -20 -20 -20 -20 -20 -20 -20 -20 -20 -20 -20 -20 -20 -20 -20 -20 -20 -20 -20 -20 -20 -6 -5 -20 -20 -20 -20 -20 -20 8
12 -14 -20 -20 -19 -20 -9 -20 -17 -20 12 15 -20 -20 -20 -20 -20 -20 -20 -20 -20 -20 -20 -20 -20 -20 -20 -20 -20 -20 -20 -20 -20 -20 4 -20 -20 -20 -7 -0 -20 -20 -20
0 -20 -20 -20 15 3 -10 13 -7 16 -6 -20 -20 -20 -20 -20 -20 -20 -20 -20 -20 -20 -20 -20 -20 -20 -20 -20 -20 -20 -20 -5 -7 -20 -20 -20 -20 -20 -20 -20 -20 -20 -20
-15 -20 -20 -20 12 -16 -3 -20 -3 -0 -10 -20 -20 -20 -20 -20 -20 -20 -20 -20 -20 -20 -8 -20 -20 -20 -20 -20 -20 -20 -20 -20 -20 -13 -20 -20 -2 5 10 -20 -20 -20 -20
-1 26 -20 21 -14 -19 23 -19 22 -20 -20 -20 -20 -20 -20 -20 -20 -20 -20 -20 -20 -15 -0 -20 -20 -20 -20 -20 -20 -20 -20 -10 -20 -20 -20 -3 10 9 -20 -20 -20 -20 -20
-19 -19 -20 -7 -15 27 26 18 9 -20 -20 -20 -20 -20 -20 -20 -20 -20 -20 -20 -20 -9 -20 -20 -20 -20 -20 -20 -20 -20 -20 -20 2 11 4 17 -2 1 6 5 3 -20 -20
-18 -20 -20 -20 15 30 17 -3 -6 -20 -20 -20 -20 -20 -20 -20 -20 -20 -20 -20 -20 -17 -17 -9 -20 -20 -20 -20 -20 -15 -18 -20 -20 -20 -3 7 1 -3 -10 -20 -5 10 9
-20 -20 -20 -20 9 -4 -16 23 2 -20 -20 -20 -20 -20 -20 -20 -20 -20 -18 -20 -20 -20 -18 -20 -20 -20 -20 -20 -20 -18 -10 -20 -20 -20 -20 -20 -20 -20 -20 -20 -20 3 11
-20 -20 -20 -3 -20 -3 15 -20 -20 -19 -20 -20 -20 -20 -20 -20 -20 -20 -9 8 3 -20 -20 -20 -20 -20 -20 -17 -16 -19 -17 -20 -19 -16 -20 -20 -20 -20 -20 -20 2 4 -7
-20 -20 -20 -20 -15 -20 -11 10 -15 -7 -20 -20 -20 -20 -20 -20 -15 -20 -1 8 7 4 -14 -3 -20 -20 -19 -20 -14 -19 -10 -3 4 -17 -19 -20 -20 -20 -20 -4 12 -17 -19
-20 -20 -20 -20 -20 -19 10 -19 1 -20 -20 -20 -20 -20 -20 -20 -20 -20 -20 -20 -20 -20 -19 -20 -18 -15 -20 -9 -17 4 8 -10 -20 -19 -20 -20 -20 -20 -20 12 16 7 -15
-20 -20 -20 -20 -20 -20 -4 -20 0 -20 -20 -20 -20 -20 -20 -20 -20 -20 -20 -20 -20 -20 -14 -13 17 14 15 9 8 -5 -8 -20 -20 -20 -20 -20 -20 -20 -17 -20 -0 15 -2
-20 -20 -20 -20 -3 -20 -4 2 -6 -20 -20 -20 -20 -20 -20 -20 -20 -20 -20 -20 -20 -20 -20 -20 7 11 12 19 21 14 -15 -20 -18 -20 -17 -20 -20 -20 -20 -20 2 12 12
Wind_Speed
6 5 4 4 4 4 4 4 3 3 3 4 3 4 4 4 4 2 1 3 5 6 7 8 9 9 10 10 12 13 15 16 16 17 17 16 17 17 17 17 17 15 15
6 6 5 5 4 4 4 4 4 3 3 3 4 4 4 3 4 3 2 1 3 4 5 7 9 11 12 13 13 13 14 15 17 18 19 18 18 19 19 20 20 19 18
8 7 6 5 5 4 5 4 3 3 3 3 5 4 3 4 3 3 2 1 2 4 4 6 8 9 11 12 12 12 12 12 13 14 17 19 19 19 21 21 22 22 22
9 7 6 6 5 5 5 4 3 3 3 3 2 3 3 2 3 4 3 2 2 2 2 5 7 8 10 11 13 14 15 14 12 12 13 12 14 17 19 22 23 24 25
10 8 6 6 6 5 5 4 2 3 3 3 3 2 2 3 4 3 4 3 2 2 2 4 7 7 9 11 13 14 15 17 17 16 15 13 12 13 12 14 16 18 23
11 9 6 7 7 5 4 3 3 2 2 3 2 3 3 3 3 3 3 1 2 1 2 3 3 4 9 11 13 13 15 15 17 18 19 19 18 18 14 13 13 14 15
11 11 7 7 7 7 8 8 3 4 2 1 2 1 2 2 3 3 2 1 2 3 3 3 2 2 3 7 8 12 14 15 16 18 17 18 19 18 17 16 15 14 14
12 11 10 9 9 7 7 6 5 3 2 1 3 2 3 4 3 2 1 2 2 2 3 3 4 4 2 2 5 13 14 16 18 17 18 18 18 19 19 18 18 16 14
13 13 11 9 9 8 7 8 7 6 4 1 2 3 2 4 2 3 1 1 1 1 2 4 5 4 3 3 5 6 11 12 14 17 18 19 20 20 20 21 20 18 15
11 11 11 10 9 6 7 6 5 4 5 4 2 1 3 3 3 4 2 1 2 1 3 3 5 6 4 3 9 12 13 12 15 17 19 20 21 21 22 22 22 21 19
10 10 10 8 8 5 5 8 7 7 3 4 4 3 1 1 2 2 4 3 2 0 3 4 4 5 5 4 4 5 11 13 15 20 21 21 22 23 23 23 23 23 22
5 7 9 8 8 7 9 7 7 7 5 5 3 3 4 3 3 3 3 3 3 4 3 4 6 4 3 5 9 16 19 17 17 22 23 24 23 23 23 24 23 24 25
3 7 8 9 9 9 10 9 8 6 6 6 5 3 2 2 2 2 1 2 3 2 4 4 3 3 5 5 8 20 21 19 20 22 24 25 25 24 24 24 24 22 24
8 10 8 7 9 10 10 8 6 5 5 5 7 5 3 2 2 2 2 2 3 3 2 5 3 2 3 8 14 20 13 20 21 21 24 24 25 25 24 23 22 21 23
8 10 10 11 10 9 9 8 6 7 6 5 5 5 3 2 2 2 2 2 2 3 2 2 3 4 9 9 12 14 13 21 23 23 23 23 25 25 24 23 23 23 23
11 11 11 11 11 10 10 10 6 6 7 4 4 5 4 3 3 2 2 1 2 3 5 1 5 10 10 11 15 15 14 23 21 21 20 20 22 24 25 24 24 23 22
12 13 12 11 11 11 9 9 7 9 7 6 4 5 5 3 2 2 1 1 1 2 6 7 6 9 13 13 13 12 13 12 11 19 20 22 22 22 22 21 23 22 20
11 12 12 11 11 10 8 11 8 7 8 7 5 6 4 3 2 2 2 2 3 4 5 11 10 9 11 12 13 13 10 10 11 17 21 21 22 21 21 20 21 20 16
13 13 14 11 10 10 9 9 10 8 7 6 6 6 5 4 2 1 1 2 3 4 4 7 10 9 9 9 10 10 9 8 8 17 17 17 17 18 19 20 19 17 16
15 14 13 13 11 8 8 9 8 8 8 6 6 5 4 4 3 1 2 3 3 4 5 7 7 9 7 8 7 7 8 5 9 8 9 10 12 17 17 18 15 16 14
13 14 14 11 12 9 7 10 9 8 8 6 5 4 3 2 1 1 1 1 3 4 5 6 7 7 7 8 8 6 6 8 8 2 7 7 8 8 9 16 14 13 9
13 13 13 13 11 6 14 13 10 8 7 6 5 4 2 1 1 3 4 6 5 6 7 6 6 7 8 8 6 7 4 4 4 2 6 6 6 7 9 9 21 21 14
15 13 12 12 10 10 16 15 13 7 6 5 5 3 1 1 3 2 4 7 6 9 10 7 8 7 7 5 8 7 4 5 5 3 4 3 5 6 9 11 30 10 8
13 12 12 12 12 9 15 14 12 7 6 6 5 4 3 2 3 3 4 4 4 4 6 5 5 8 7 8 7 6 7 7 5 2 4 3 3 4 9 11 26 19 11
12 9 10 12 12 10 16 15 11 7 5 4 3 3 3 3 3 5 3 3 4 5 5 10 9 8 8 9 9 4 3 4 3 2 3 3 3 4 5 11 13 26 23
12 11 11 10 14 11 15 15 10 6 6 3 3 3 4 4 4 0 1 2 4 4 7 6 3 4 5 6 9 4 5 4 2 2 3 4 4 4 3 7 11 11 13
Wind_Direction
178 166 175 175 173 160 172 187 196 213 231 234 240 241 256 253 243 238 250 295 309 329 321 303 298 294 278 264 252 250 251 251 251 251 249 243 238 239 241 244 247 245 233
172 181 174 182 182 182 175 181 187 208 235 231 252 245 256 260 261 264 254 287 320 329 331 328 324 318 313 310 308 303 294 276 259 256 253 247 243 240 239 238 239 242 241
176 178 181 180 187 181 178 183 197 201 230 229 247 236 239 239 245 276 288 273 304 333 326 331 320 316 310 302 299 296 296 293 285 280 268 257 254 244 243 244 242 240 240
177 177 183 188 175 174 182 182 183 206 222 219 234 244 231 239 251 261 274 292 340 338 325 313 318 322 322 320 317 314 310 303 293 292 293 290 273 267 264 258 252 250 244
182 182 187 186 171 178 182 182 171 173 196 225 244 258 244 258 265 281 287 329 333 324 337 336 344 341 340 339 336 330 322 315 310 303 298 282 277 272 268 266 267 267 263
186 185 187 182 174 178 176 162 167 153 178 207 208 258 260 262 278 261 259 249 271 35 40 6 354 339 347 344 341 336 329 325 324 325 323 320 320 323 283 262 261 266 271
184 186 189 184 181 188 191 186 152 159 139 102 107 292 285 283 299 307 307 80 54 62 45 7 356 334 320 330 338 336 335 335 330 323 320 321 319 315 305 306 279 274 272
182 186 185 186 183 183 176 168 152 124 101 132 123 83 337 331 360 33 30 47 20 55 14 344 309 298 306 314 325 332 328 329 322 320 316 315 315 314 305 295 285 261 261
184 185 184 183 181 180 184 168 160 154 142 109 138 142 144 233 304 328 1 327 164 360 355 328 307 301 317 309 317 319 318 323 332 326 322 318 316 310 311 304 291 269 258
183 185 183 179 179 177 168 157 153 146 133 155 130 70 65 142 186 315 303 295 355 353 304 306 301 310 316 322 330 329 328 342 340 329 325 319 316 312 310 308 299 284 264
174 172 168 155 153 154 149 149 149 147 150 140 145 164 140 120 76 158 274 300 288 196 309 300 311 314 324 350 331 331 342 333 328 321 317 316 314 310 308 307 303 294 280
159 165 156 153 156 147 149 145 139 150 150 134 137 149 151 161 186 168 228 291 274 307 302 300 306 314 341 356 345 340 326 325 328 321 315 314 309 303 300 297 300 300 289
164 171 156 158 159 153 143 141 142 133 139 137 135 125 106 129 114 117 162 261 270 315 311 287 299 318 350 350 333 330 321 318 313 313 312 313 309 307 302 297 294 297 295
169 154 146 146 142 136 134 133 126 118 113 100 115 113 119 115 121 133 161 165 296 259 256 273 313 354 352 336 315 313 310 308 307 307 305 306 305 304 301 298 297 294 294
150 149 143 141 137 136 137 121 119 121 114 127 113 121 124 128 110 115 128 150 181 306 304 285 294 336 329 311 312 308 305 303 305 306 303 301 303 303 299 295 296 296 291
144 140 140 142 137 128 124 117 110 123 119 112 116 131 112 125 121 119 129 158 180 235 273 289 297 305 316 314 308 306 299 303 303 299 295 294 296 294 292 289 291 292 289
143 146 142 135 131 129 130 119 139 132 129 127 137 133 122 125 117 111 124 184 227 216 271 290 295 311 306 295 295 296 297 301 301 300 298 299 297 293 290 286 286 286 286
143 142 128 132 129 130 148 135 141 135 142 146 146 124 138 131 121 164 179 227 240 250 276 297 303 303 290 294 290 290 294 296 300 301 299 301 300 293 291 285 281 278 278
133 133 131 133 133 144 157 140 148 148 124 139 146 143 151 142 148 166 230 263 251 278 290 288 296 297 297 296 296 290 291 293 299 308 300 299 305 309 309 298 280 275 270
143 137 139 134 139 154 139 134 147 126 126 140 145 137 145 156 157 216 255 264 283 297 303 292 290 297 300 307 298 307 315 316 308 303 309 302 323 323 324 326 308 285 268
145 140 134 137 141 152 148 143 138 133 140 141 131 140 151 157 249 39 309 298 327 308 302 292 291 297 306 322 325 317 307 313 310 14 324 325 333 333 340 333 325 309 274
138 138 143 141 145 128 141 131 137 141 133 138 139 142 132 78 14 305 333 317 281 289 285 285 293 297 305 313 321 322 317 328 323 31 335 313 344 338 339 331 321 308 280
142 143 136 135 128 130 134 136 142 124 132 134 139 140 158 240 281 262 282 278 297 281 263 275 280 292 296 321 315 315 312 308 290 323 316 300 338 343 342 334 338 289 262
142 141 133 131 128 136 138 141 131 125 124 136 153 161 178 227 255 288 274 285 310 292 281 278 273 284 289 303 297 279 292 293 274 268 341 315 334 334 350 352 355 7 338
125 125 129 129 131 135 140 144 135 133 129 145 160 169 172 233 279 308 311 317 314 311 287 295 294 304 331 337 345 311 299 303 312 319 11 316 355 308 352 3 1 18 30
125 124 122 127 138 145 153 151 139 133 141 148 154 155 216 221 257 80 2 333 310 319 323 325 324 338 337 342 352 2 327 310 311 309 6 336 342 348 4 8 10 13 35